Location: Arroyo de Fuente Vieja
(40.4902°N, 4.1175°W)
Time: 16:55:23
(UTC+00:00)

COSMOS 2455 - Pass Details

Date: 18 April 2024
Orbit: 898 x 911 km, 67.1° (Epoch: 24 May)

Event Time Altitude Azimuth Distance (km) Brightness Sun altitude
Rises 22:03:05 0° 328° (NNW) 3,547 7.1 -29.9°
Reaches altitude 10° 22:05:37 10° 325° (NW) 2,603 6.1 -30.2°
Enters shadow 22:11:11 63° 267° (W) 1,014 3.1 -30.8°
